Miscellaneous Local Product
Issued by NWS Hastings, NE

Home | Current Version | Previous Version | Graphics & Text | Print | Product List | Glossary On
Versions: 1 2 3 4 5 6 7 8 9 10 11 12 13 14 15 16 17 18 19 20 21 22 23 24 25 26 27 28 29 30 31 32 33 34 35 36 37 38 39 40 41 42 43 44 45 46 47 48 49 50
000
AXUS43 KGID 302002
MISGRI

GID CWA HOURLY WEATHER ROUNDUP
NATIONAL WEATHER SERVICE HASTINGS NE
200 PM CST FRI JAN 30 2015

NOTE: "FAIR" INDICATES FEW OR NO CLOUDS BELOW 12,000 FEET WITH NO
SIGNIFICANT WEATHER AND/OR OBSTRUCTIONS TO VISIBILITY.

...SOUTH CENTRAL NEBRASKA...

CITY           SKY/WX    TMP DP  RH WIND       PRES   REMARKS
GRAND ISLAND   PTSUNNY   44  26  49 S21       30.32F
HASTINGS       PTSUNNY   45  24  43 S13G21    30.32F
KEARNEY        CLOUDY    45  25  45 S18       30.29F
ORD            PTSUNNY   43  25  49 S17G25    30.26F
YORK           CLOUDY    39  27  60 S15G22    30.35F WCI  31
AURORA         CLOUDY    42  26  53 S14       30.34F
LEXINGTON      PTSUNNY   45  27  50 S16       30.26F
HOLDREGE       CLOUDY    42  24  49 S17G24    30.29F
HEBRON         PTSUNNY   42  25  51 S12       30.39F

...NEBRASKA PANHANDLE...

CITY           SKY/WX    TMP DP  RH WIND       PRES   REMARKS
CHADRON        PTSUNNY   48  27  44 W3        30.14F
ALLIANCE       CLOUDY    47  24  40 CALM      30.13F
SCOTTSBLUFF    CLOUDY    41  28  60 NW6       30.14F
SIDNEY         CLOUDY    45  28  51 SW8       30.13F

...WESTERN AND NORTH CENTRAL NEBRASKA...

CITY           SKY/WX    TMP DP  RH WIND       PRES   REMARKS
VALENTINE      PTSUNNY   50  25  37 SW15      30.14F
AINSWORTH      PTSUNNY   47  24  39 S14G20    30.17F
ONEILL         PTSUNNY   42  28  55 S21G26    30.23F
BROKEN BOW     PTSUNNY   46  26  45 S17       30.22F
IMPERIAL       CLOUDY    53  31  42 S20       30.16F
NORTH PLATTE   PTSUNNY   48  26  42 S12       30.19F
MCCOOK         CLOUDY    49  27  42 S13G22    30.23F

...EASTERN NEBRASKA...

CITY           SKY/WX    TMP DP  RH WIND       PRES   REMARKS
NORFOLK        MOSUNNY   42  27  55 S17       30.29F
SO SIOUX CITY  SUNNY     38  26  62 S14       30.34F WCI  30
TEKAMAH        SUNNY     38  24  57 S16       30.38F WCI  29
COLUMBUS       PTSUNNY   39  25  56 SW14G20   30.35F WCI  31
ALBION         PTSUNNY   41  26  56 S13       30.30F
OMAHA EPPLEY   CLOUDY    35  22  58 S12       30.40F WCI  27
OFFUTT AFB     MOSUNNY   35  22  58 S8        30.40F WCI  29
MILLARD        MOSUNNY   37  24  59 S10       30.41F WCI  29
LINCOLN        PTSUNNY   40  25  55 S12       30.39F WCI  33
NEBRASKA CITY  PTSUNNY   34  21  58 S9        30.43F WCI  27
BEATRICE       PTSUNNY   39  26  58 S10       30.40F WCI  32
FALLS CITY     PTSUNNY   37  22  54 SW5       30.44F WCI  33

...NORTHERN KANSAS...

CITY           SKY/WX    TMP DP  RH WIND       PRES   REMARKS
GOODLAND       CLOUDY    45  33  63 S21G29    30.19F
HILL CITY      CLOUDY    46  25  43 S14G21    30.29F
NORTON         CLOUDY    45  21  39 S13       30.26F
PHILLIPSBURG   CLOUDY    50  27  40 S16       30.31F
SMITH CENTER   PTSUNNY   45  27  49 S17       30.34F
BELOIT         CLOUDY    46  25  42 S15G21    30.36F
HAYS           CLOUDY    45  25  45 S20       30.33F
RUSSELL        CLOUDY    44  27  51 S18       30.33F
CONCORDIA      PTSUNNY   43  27  53 S14       30.39F
SALINA         CLOUDY    45  26  47 S12       30.41F
TOPEKA         PTSUNNY   38  23  55 VRB3      30.46F



USA.gov is the U.S. government's official web portal to all federal, state and local government web resources and services.